カタログに戻る

APSTAR 5

TELSTAR 18

運用中通信GEO
NORAD 28364·PAYLOAD·🇨🇳 China

打ち上げ Jun 29, 2004 から Sea Launch Platform

Loading…

TLE

最新Source: Space-Track

元期: Sep 14, 2026, 12:26 UTC

1 28364U 04024A   26257.51862867  .00000051  00000-0  00000-0 0  9994
2 28364   7.1942  68.6634 0001626  31.2849 154.7859  0.99010351 81188

AllMySatでAPSTAR 5をリアルタイム追跡

Download on the App Store